Time,TemperatureF,DewpointF,PressureIn,WindDirection,WindDirectionDegrees,WindSpeedMPH,WindSpeedGustMPH,Humidity,HourlyPrecipIn,Conditions,Clouds,dailyrainin,SoftwareType,DateUTC
2013-04-01 00:03:00,37.0,31.0,29.83,West,277,8.0,-999.0,80,-99.99,,,-99.99,,2013-04-01 04:03:00,
2013-04-01 00:14:00,37.0,31.0,29.83,West,277,8.0,-999.0,80,-99.99,,,-99.99,,2013-04-01 04:14:00,
2013-04-01 00:23:00,37.0,32.0,29.83,WNW,282,7.0,-999.0,81,-99.99,,,-99.99,,2013-04-01 04:23:00,
2013-04-01 00:33:00,36.0,31.0,29.83,NW,311,9.0,-999.0,81,-99.99,,,-99.99,,2013-04-01 04:33:00,
2013-04-01 00:43:00,36.0,31.0,29.83,NW,311,9.0,-999.0,81,-99.99,,,-99.99,,2013-04-01 04:43:00,
2013-04-01 00:53:00,36.0,31.0,29.83,West,279,7.0,-999.0,81,-99.99,,,-99.99,,2013-04-01 04:53:00,
2013-04-01 01:03:00,33.0,28.0,29.86,NNW,348,16.0,-999.0,82,-99.99,,,-99.99,,2013-04-01 05:03:00,
2013-04-01 01:13:00,33.0,28.0,29.86,NNW,348,16.0,-999.0,82,-99.99,,,-99.99,,2013-04-01 05:13:00,
2013-04-01 01:22:00,32.0,27.0,29.86,NNW,338,9.0,-999.0,83,-99.99,,,-99.99,,2013-04-01 05:22:00,
2013-04-01 01:33:00,32.0,27.0,29.86,NNW,344,8.0,-999.0,82,-99.99,,,-99.99,,2013-04-01 05:33:00,
2013-04-01 01:43:00,32.0,27.0,29.86,NNW,344,8.0,-999.0,82,-99.99,,,-99.99,,2013-04-01 05:43:00,
2013-04-01 01:52:00,31.0,26.0,29.86,NNW,346,8.0,-999.0,80,-99.99,,,-99.99,,2013-04-01 05:52:00,
2013-04-01 02:02:00,31.0,25.0,29.87,NNW,333,7.0,-999.0,79,-99.99,,,-99.99,,2013-04-01 06:02:00,
2013-04-01 02:13:00,31.0,25.0,29.87,NNW,333,7.0,-999.0,79,-99.99,,,-99.99,,2013-04-01 06:13:00,
2013-04-01 02:23:00,31.0,25.0,29.88,WNW,302,6.0,-999.0,79,-99.99,,,-99.99,,2013-04-01 06:23:00,
2013-04-01 02:33:00,31.0,25.0,29.89,NW,323,6.0,-999.0,78,-99.99,,,-99.99,,2013-04-01 06:33:00,
2013-04-01 02:43:00,31.0,25.0,29.89,NW,323,6.0,-999.0,78,-99.99,,,-99.99,,2013-04-01 06:43:00,
2013-04-01 02:52:00,30.0,23.0,29.90,NW,317,6.0,-999.0,76,-99.99,,,-99.99,,2013-04-01 06:52:00,
2013-04-01 03:03:00,30.0,22.0,29.90,NNW,327,6.0,-999.0,72,-99.99,,,-99.99,,2013-04-01 07:03:00,
2013-04-01 03:13:00,30.0,22.0,29.90,NNW,327,6.0,-999.0,72,-99.99,,,-99.99,,2013-04-01 07:13:00,
2013-04-01 03:22:00,30.0,20.0,29.91,NW,314,9.0,-999.0,66,-99.99,,,-99.99,,2013-04-01 07:22:00,
2013-04-01 03:32:00,30.0,20.0,29.92,NW,323,6.0,-999.0,66,-99.99,,,-99.99,,2013-04-01 07:32:00,
2013-04-01 03:42:00,30.0,20.0,29.92,NW,323,6.0,-999.0,66,-99.99,,,-99.99,,2013-04-01 07:42:00,
2013-04-01 03:52:00,30.0,20.0,29.92,NW,314,6.0,-999.0,67,-99.99,,,-99.99,,2013-04-01 07:52:00,
2013-04-01 04:03:00,29.0,20.0,29.92,NW,321,5.0,-999.0,69,-99.99,,,-99.99,,2013-04-01 08:03:00,
2013-04-01 04:12:00,29.0,20.0,29.92,NW,321,5.0,-999.0,69,-99.99,,,-99.99,,2013-04-01 08:12:00,
2013-04-01 04:22:00,29.0,20.0,29.93,NW,321,5.0,-999.0,69,-99.99,,,-99.99,,2013-04-01 08:22:00,
2013-04-01 04:32:00,29.0,20.0,29.94,NNW,336,3.0,-999.0,70,-99.99,,,-99.99,,2013-04-01 08:32:00,
2013-04-01 04:43:00,29.0,20.0,29.94,NNW,336,3.0,-999.0,70,-99.99,,,-99.99,,2013-04-01 08:43:00,
2013-04-01 04:52:00,29.0,20.0,29.94,NW,318,7.0,-999.0,69,-99.99,,,-99.99,,2013-04-01 08:52:00,
2013-04-01 05:02:00,29.0,19.0,29.95,NNW,338,6.0,-999.0,66,-99.99,,,-99.99,,2013-04-01 09:02:00,
2013-04-01 05:12:00,29.0,19.0,29.95,NNW,338,6.0,-999.0,66,-99.99,,,-99.99,,2013-04-01 09:12:00,
2013-04-01 05:23:00,29.0,19.0,29.95,NW,312,6.0,-999.0,66,-99.99,,,-99.99,,2013-04-01 09:23:00,
2013-04-01 05:33:00,29.0,19.0,29.96,NW,307,3.0,-999.0,66,-99.99,,,-99.99,,2013-04-01 09:33:00,
2013-04-01 05:42:00,29.0,19.0,29.96,NW,307,3.0,-999.0,66,-99.99,,,-99.99,,2013-04-01 09:42:00,
2013-04-01 05:53:00,29.0,19.0,29.96,WNW,302,5.0,-999.0,65,-99.99,,,-99.99,,2013-04-01 09:53:00,
2013-04-01 06:03:00,29.0,19.0,29.97,NW,308,3.0,-999.0,66,-99.99,,,-99.99,,2013-04-01 10:03:00,
2013-04-01 06:13:00,29.0,19.0,29.97,NW,308,3.0,-999.0,66,-99.99,,,-99.99,,2013-04-01 10:13:00,
2013-04-01 06:23:00,29.0,19.0,29.98,NW,309,5.0,-999.0,65,-99.99,,,-99.99,,2013-04-01 10:23:00,
2013-04-01 06:33:00,29.0,18.0,29.98,NW,309,7.0,-999.0,64,-99.99,,,-99.99,,2013-04-01 10:33:00,
2013-04-01 06:42:00,29.0,18.0,29.98,NW,309,7.0,-999.0,64,-99.99,,,-99.99,,2013-04-01 10:42:00,
2013-04-01 06:53:00,29.0,18.0,29.98,NW,309,7.0,-999.0,64,-99.99,,,-99.99,,2013-04-01 10:53:00,
2013-04-01 07:03:00,29.0,18.0,29.99,North,350,9.0,-999.0,64,-99.99,,,-99.99,,2013-04-01 11:03:00,
2013-04-01 07:13:00,29.0,18.0,29.99,North,350,9.0,-999.0,64,-99.99,,,-99.99,,2013-04-01 11:13:00,
2013-04-01 07:23:00,28.0,16.0,30.00,NNW,334,9.0,-999.0,60,-99.99,,,-99.99,,2013-04-01 11:23:00,
2013-04-01 07:33:00,28.0,15.0,30.01,NW,317,8.0,-999.0,58,-99.99,,,-99.99,,2013-04-01 11:33:00,
2013-04-01 07:42:00,28.0,15.0,30.01,NW,317,8.0,-999.0,58,-99.99,,,-99.99,,2013-04-01 11:42:00,
2013-04-01 07:53:00,28.0,16.0,30.02,NW,306,8.0,-999.0,59,-99.99,,,-99.99,,2013-04-01 11:53:00,
2013-04-01 08:03:00,28.0,16.0,30.03,NW,319,7.0,-999.0,59,-99.99,,,-99.99,,2013-04-01 12:03:00,
2013-04-01 08:12:00,28.0,16.0,30.03,NW,319,7.0,-999.0,59,-99.99,,,-99.99,,2013-04-01 12:12:00,
2013-04-01 08:23:00,28.0,15.0,30.04,NW,325,7.0,-999.0,58,-99.99,,,-99.99,,2013-04-01 12:23:00,
2013-04-01 08:32:00,28.0,15.0,30.05,NW,326,7.0,-999.0,57,-99.99,,,-99.99,,2013-04-01 12:32:00,
2013-04-01 08:42:00,28.0,15.0,30.05,NW,326,7.0,-999.0,57,-99.99,,,-99.99,,2013-04-01 12:42:00,
2013-04-01 08:53:00,28.0,15.0,30.05,NNW,348,9.0,-999.0,57,-99.99,,,-99.99,,2013-04-01 12:53:00,
2013-04-01 09:03:00,28.0,15.0,30.06,WNW,302,9.0,-999.0,58,-99.99,,,-99.99,,2013-04-01 13:03:00,
2013-04-01 09:12:00,28.0,15.0,30.06,WNW,302,9.0,-999.0,58,-99.99,,,-99.99,,2013-04-01 13:12:00,
2013-04-01 09:22:00,29.0,15.0,30.06,NNW,333,9.0,-999.0,56,-99.99,,,-99.99,,2013-04-01 13:22:00,
2013-04-01 09:32:00,29.0,14.0,30.07,NW,317,10.0,-999.0,54,-99.99,,,-99.99,,2013-04-01 13:32:00,
2013-04-01 09:42:00,29.0,14.0,30.07,NW,317,10.0,-999.0,54,-99.99,,,-99.99,,2013-04-01 13:42:00,
2013-04-01 09:53:00,30.0,14.0,30.07,NW,314,10.0,-999.0,51,-99.99,,,-99.99,,2013-04-01 13:53:00,
2013-04-01 10:04:00,30.0,14.0,30.08,NNW,327,10.0,-999.0,50,-99.99,,,-99.99,,2013-04-01 14:04:00,
2013-04-01 10:12:00,30.0,14.0,30.08,NNW,327,10.0,-999.0,50,-99.99,,,-99.99,,2013-04-01 14:12:00,
2013-04-01 10:22:00,29.0,14.0,30.08,WNW,302,11.0,-999.0,52,-99.99,,,-99.99,,2013-04-01 14:22:00,
2013-04-01 10:33:00,30.0,14.0,30.08,NNW,334,9.0,-999.0,50,-99.99,,,-99.99,,2013-04-01 14:33:00,
2013-04-01 10:42:00,30.0,14.0,30.08,NNW,334,9.0,-999.0,50,-99.99,,,-99.99,,2013-04-01 14:42:00,
2013-04-01 10:53:00,30.0,14.0,30.08,NNW,334,9.0,-999.0,50,-99.99,,,-99.99,,2013-04-01 14:53:00,
2013-04-01 11:03:00,30.0,14.0,30.09,WNW,289,9.0,-999.0,51,-99.99,,,-99.99,,2013-04-01 15:03:00,
2013-04-01 11:13:00,30.0,14.0,30.09,WNW,289,9.0,-999.0,51,-99.99,,,-99.99,,2013-04-01 15:13:00,
2013-04-01 11:22:00,30.0,14.0,30.09,WNW,289,9.0,-999.0,51,-99.99,,,-99.99,,2013-04-01 15:22:00,
2013-04-01 11:34:00,31.0,16.0,30.10,NW,323,8.0,-999.0,54,-99.99,,,-99.99,,2013-04-01 15:34:00,
2013-04-01 11:44:00,31.0,16.0,30.10,NW,323,8.0,-999.0,54,-99.99,,,-99.99,,2013-04-01 15:44:00,
2013-04-01 11:54:00,30.0,16.0,30.10,WNW,296,8.0,-999.0,56,-99.99,,,-99.99,,2013-04-01 15:54:00,
2013-04-01 12:03:00,30.0,16.0,30.11,NW,314,11.0,-999.0,55,-99.99,,,-99.99,,2013-04-01 16:03:00,
2013-04-01 12:13:00,30.0,16.0,30.11,NW,314,11.0,-999.0,55,-99.99,,,-99.99,,2013-04-01 16:13:00,
2013-04-01 12:23:00,31.0,18.0,30.11,NW,325,10.0,-999.0,57,-99.99,,,-99.99,,2013-04-01 16:23:00,
2013-04-01 12:33:00,32.0,16.0,30.11,NW,323,6.0,-999.0,52,-99.99,,,-99.99,,2013-04-01 16:33:00,
2013-04-01 12:43:00,32.0,16.0,30.11,NW,323,6.0,-999.0,52,-99.99,,,-99.99,,2013-04-01 16:43:00,
2013-04-01 12:52:00,33.0,18.0,30.11,West,270,9.0,-999.0,53,-99.99,,,-99.99,,2013-04-01 16:52:00,
2013-04-01 13:03:00,33.0,18.0,30.11,WSW,253,10.0,-999.0,53,-99.99,,,-99.99,,2013-04-01 17:03:00,
2013-04-01 13:13:00,33.0,18.0,30.11,WSW,253,10.0,-999.0,53,-99.99,,,-99.99,,2013-04-01 17:13:00,
2013-04-01 13:23:00,33.0,16.0,30.11,WNW,296,10.0,-999.0,49,-99.99,,,-99.99,,2013-04-01 17:23:00,
2013-04-01 13:32:00,33.0,16.0,30.11,WNW,296,10.0,-999.0,49,-99.99,,,-99.99,,2013-04-01 17:32:00,
2013-04-01 13:42:00,33.0,16.0,30.11,WNW,296,10.0,-999.0,49,-99.99,,,-99.99,,2013-04-01 17:42:00,
2013-04-01 13:52:00,33.0,17.0,30.12,WNW,288,9.0,-999.0,52,-99.99,,,-99.99,,2013-04-01 17:52:00,
2013-04-01 14:03:00,33.0,17.0,30.12,West,279,10.0,-999.0,51,-99.99,,,-99.99,,2013-04-01 18:03:00,
2013-04-01 14:12:00,33.0,17.0,30.12,West,279,10.0,-999.0,51,-99.99,,,-99.99,,2013-04-01 18:12:00,
2013-04-01 14:22:00,33.0,15.0,30.12,WNW,284,11.0,-999.0,48,-99.99,,,-99.99,,2013-04-01 18:22:00,
2013-04-01 14:33:00,33.0,17.0,30.13,West,271,11.0,-999.0,51,-99.99,,,-99.99,,2013-04-01 18:33:00,
2013-04-01 14:43:00,33.0,17.0,30.13,West,271,11.0,-999.0,51,-99.99,,,-99.99,,2013-04-01 18:43:00,
2013-04-01 14:52:00,32.0,15.0,30.13,West,277,11.0,-999.0,50,-99.99,,,-99.99,,2013-04-01 18:52:00,
2013-04-01 15:03:00,32.0,15.0,30.14,NW,306,10.0,-999.0,50,-99.99,,,-99.99,,2013-04-01 19:03:00,
2013-04-01 15:13:00,32.0,15.0,30.14,NW,306,10.0,-999.0,50,-99.99,,,-99.99,,2013-04-01 19:13:00,
2013-04-01 15:23:00,33.0,15.0,30.14,West,265,9.0,-999.0,48,-99.99,,,-99.99,,2013-04-01 19:23:00,
2013-04-01 15:32:00,32.0,16.0,30.14,WNW,286,11.0,-999.0,51,-99.99,,,-99.99,,2013-04-01 19:32:00,
2013-04-01 15:42:00,32.0,16.0,30.14,WNW,286,11.0,-999.0,51,-99.99,,,-99.99,,2013-04-01 19:42:00,
2013-04-01 15:53:00,32.0,15.0,30.14,WNW,302,10.0,-999.0,49,-99.99,,,-99.99,,2013-04-01 19:53:00,
2013-04-01 16:02:00,31.0,15.0,30.14,WNW,282,10.0,-999.0,52,-99.99,,,-99.99,,2013-04-01 20:02:00,
2013-04-01 16:13:00,31.0,15.0,30.14,WNW,282,10.0,-999.0,52,-99.99,,,-99.99,,2013-04-01 20:13:00,
2013-04-01 16:23:00,32.0,16.0,30.14,WNW,300,10.0,-999.0,51,-99.99,,,-99.99,,2013-04-01 20:23:00,
2013-04-01 16:33:00,32.0,15.0,30.14,West,281,11.0,-999.0,49,-99.99,,,-99.99,,2013-04-01 20:33:00,
2013-04-01 16:43:00,32.0,15.0,30.14,West,281,11.0,-999.0,49,-99.99,,,-99.99,,2013-04-01 20:43:00,
2013-04-01 16:52:00,32.0,14.0,30.15,West,275,10.0,-999.0,47,-99.99,,,-99.99,,2013-04-01 20:52:00,
2013-04-01 17:02:00,32.0,15.0,30.14,NW,318,9.0,-999.0,49,-99.99,,,-99.99,,2013-04-01 21:02:00,
2013-04-01 17:12:00,32.0,15.0,30.14,NW,318,9.0,-999.0,49,-99.99,,,-99.99,,2013-04-01 21:12:00,
2013-04-01 17:23:00,31.0,15.0,30.15,WSW,248,11.0,-999.0,50,-99.99,,,-99.99,,2013-04-01 21:23:00,
2013-04-01 17:33:00,31.0,14.0,30.15,WSW,258,10.0,-999.0,49,-99.99,,,-99.99,,2013-04-01 21:33:00,
2013-04-01 17:43:00,31.0,14.0,30.15,WSW,258,10.0,-999.0,49,-99.99,,,-99.99,,2013-04-01 21:43:00,
2013-04-01 17:53:00,30.0,13.0,30.15,West,261,9.0,-999.0,48,-99.99,,,-99.99,,2013-04-01 21:53:00,
2013-04-01 18:03:00,31.0,15.0,30.15,NW,309,10.0,-999.0,51,-99.99,,,-99.99,,2013-04-01 22:03:00,
2013-04-01 18:12:00,31.0,15.0,30.15,NW,309,10.0,-999.0,51,-99.99,,,-99.99,,2013-04-01 22:12:00,
2013-04-01 18:23:00,30.0,15.0,30.16,NW,314,9.0,-999.0,54,-99.99,,,-99.99,,2013-04-01 22:23:00,
2013-04-01 18:33:00,30.0,17.0,30.16,NW,313,7.0,-999.0,58,-99.99,,,-99.99,,2013-04-01 22:33:00,
2013-04-01 18:43:00,30.0,17.0,30.16,NW,313,7.0,-999.0,58,-99.99,,,-99.99,,2013-04-01 22:43:00,
2013-04-01 18:52:00,30.0,17.0,30.16,WNW,287,8.0,-999.0,57,-99.99,,,-99.99,,2013-04-01 22:52:00,
2013-04-01 19:02:00,30.0,15.0,30.16,NW,315,7.0,-999.0,54,-99.99,,,-99.99,,2013-04-01 23:02:00,
2013-04-01 19:12:00,30.0,15.0,30.16,NW,315,7.0,-999.0,54,-99.99,,,-99.99,,2013-04-01 23:12:00,
2013-04-01 19:23:00,30.0,15.0,30.16,WNW,282,8.0,-999.0,53,-99.99,,,-99.99,,2013-04-01 23:23:00,
2013-04-01 19:32:00,30.0,15.0,30.16,NW,317,9.0,-999.0,54,-99.99,,,-99.99,,2013-04-01 23:32:00,
2013-04-01 19:43:00,30.0,15.0,30.16,NW,317,9.0,-999.0,54,-99.99,,,-99.99,,2013-04-01 23:43:00,
2013-04-01 19:53:00,30.0,16.0,30.17,West,266,8.0,-999.0,55,-99.99,,,-99.99,,2013-04-01 23:53:00,
2013-04-01 20:03:00,29.0,15.0,30.16,West,267,6.0,-999.0,56,-99.99,,,-99.99,,2013-04-02 00:03:00,
2013-04-01 20:12:00,29.0,15.0,30.16,West,267,6.0,-999.0,56,-99.99,,,-99.99,,2013-04-02 00:12:00,
2013-04-01 20:22:00,29.0,15.0,30.17,West,277,5.0,-999.0,56,-99.99,,,-99.99,,2013-04-02 00:22:00,
2013-04-01 20:33:00,29.0,15.0,30.17,West,275,4.0,-999.0,56,-99.99,,,-99.99,,2013-04-02 00:33:00,
2013-04-01 20:42:00,29.0,15.0,30.17,West,275,4.0,-999.0,56,-99.99,,,-99.99,,2013-04-02 00:42:00,
2013-04-01 20:53:00,29.0,16.0,30.16,WNW,291,2.0,-999.0,58,-99.99,,,-99.99,,2013-04-02 00:53:00,
2013-04-01 21:02:00,29.0,16.0,30.16,WNW,292,3.0,-999.0,57,-99.99,,,-99.99,,2013-04-02 01:02:00,
2013-04-01 21:12:00,29.0,16.0,30.16,WNW,292,3.0,-999.0,57,-99.99,,,-99.99,,2013-04-02 01:12:00,
2013-04-01 21:22:00,29.0,16.0,30.16,WNW,292,3.0,-999.0,57,-99.99,,,-99.99,,2013-04-02 01:22:00,
2013-04-01 21:32:00,29.0,17.0,30.17,West,270,2.0,-999.0,60,-99.99,,,-99.99,,2013-04-02 01:32:00,
2013-04-01 21:42:00,29.0,17.0,30.17,West,270,2.0,-999.0,60,-99.99,,,-99.99,,2013-04-02 01:42:00,
2013-04-01 21:53:00,29.0,18.0,30.17,West,267,0.0,-999.0,62,-99.99,,,-99.99,,2013-04-02 01:53:00,
2013-04-01 22:03:00,29.0,18.0,30.17,West,267,0.0,-999.0,62,-99.99,,,-99.99,,2013-04-02 02:03:00,
2013-04-01 22:12:00,29.0,18.0,30.17,West,267,0.0,-999.0,62,-99.99,,,-99.99,,2013-04-02 02:12:00,
2013-04-01 22:22:00,28.0,17.0,30.17,West,263,1.0,-999.0,63,-99.99,,,-99.99,,2013-04-02 02:22:00,
2013-04-01 22:32:00,27.0,17.0,30.17,West,263,0.0,-999.0,66,-99.99,,,-99.99,,2013-04-02 02:32:00,
2013-04-01 22:42:00,27.0,17.0,30.17,West,263,0.0,-999.0,66,-99.99,,,-99.99,,2013-04-02 02:42:00,
2013-04-01 22:52:00,27.0,18.0,30.17,SW,227,2.0,-999.0,67,-99.99,,,-99.99,,2013-04-02 02:52:00,
2013-04-01 23:02:00,27.0,18.0,30.17,West,274,1.0,-999.0,68,-99.99,,,-99.99,,2013-04-02 03:02:00,
2013-04-01 23:13:00,27.0,18.0,30.17,West,274,1.0,-999.0,68,-99.99,,,-99.99,,2013-04-02 03:13:00,
2013-04-01 23:22:00,27.0,18.0,30.17,West,271,2.0,-999.0,69,-99.99,,,-99.99,,2013-04-02 03:22:00,
2013-04-01 23:33:00,26.0,18.0,30.17,WSW,248,1.0,-999.0,70,-99.99,,,-99.99,,2013-04-02 03:33:00,
2013-04-01 23:43:00,26.0,18.0,30.17,WSW,248,1.0,-999.0,70,-99.99,,,-99.99,,2013-04-02 03:43:00,
2013-04-01 23:53:00,26.0,18.0,30.18,WSW,248,0.0,-999.0,72,-99.99,,,-99.99,,2013-04-02 03:53:00,